Showing default

YAOGAN-33 02, 53698

Orbit data source: Space-Track

YAOGAN-33 02, 53698 is a payload satellite owned by PLA SSF (CN) in SSO that was launched on Fri, 02 Sep 2022 UTC via a CHANG ZHENG 4C launch vehicle from the Jiuquan Satellite Launch Center, China (JSC). Payload-class satellites include a variety of spacecraft equipped with specific instruments for various scientific and technological missions. These include communications satellites like Starlink; space stations such as the ISS; scientific satellites like the Hubble; Earth observation satellites from companies like Planet Labs, Umbra, and HawkEye 360; GPS; miniature CubeSats for education and research; and military/defense satellites.

Loading next visibility...
Identifier
53698, 2022-106A
Orbit
SSO
Country
Flag of CNCN / PRC
Related business
Manufacturer
SAST
Mission
Operational Defense Radar Imaging
Bus & Motor
JB-9, Unknown motor
Mass
1,040 kg wet, 1,040 kg dry
Launch date (UTC)
2022-09-02 (4 years ago)
Launch vehicle
CHANG ZHENG 4C
Launch site
Jiuquan Satellite Launch Center, China (JSC)
Object type
Payload
Rocket body
Debris
Shape & HBR
Box + 2 Pan, Unknown HBR
Radar Cross Section
4.795 m², Large (>1 m²)

Expand to show TLE details & history
Last TLE update: 22 hours ago

TLE from 22 hours ago
0 YAOGAN-33 02
1 53698U 22106A   26172.51716316  .00000079  00000-0  26708-4 0  9993
2 53698  98.1812 180.3150 0002919 121.9795 238.1688 14.58726729202354
Epoch: 2026-06-21T12:24Z
TLE epoch observation values (Epoch: 2026-06-21T12:24:42.897Z)
Latitude
-0.00004°
Longitude
84.41997°
Altitude
701.362 km
Speed
7.505 km/s
True Right ascension
12h 01m 15s
True Declination
0° 00' 00"
Sunlit
Object was in daylight at epoch
Visualization orbit readout
Latitude
Unknown
Longitude
Unknown
Altitude
Unknown
Speed
Unknown
Apparent Right ascension
Unknown
Apparent Declination
Unknown
Sunlit
N/A
Visualization observer readout
Local Sidereal Time
21:27:26
Azimuth
Unknown
Elevation
Unknown
Doppler factor
Unknown
Orbital elements
Apogee altitude
696.435 km
Perigee altitude
692.306 km
Semi-major axis
7,072.507 km
Eccentricity
0.00029
Inclination
98.1812°
RAAN
180.315°
Arg. of periapsis
121.9795°
True anomaly
238.14039°
Mean anomaly
238.1688°
Eccentric anomaly
238.15459°
Mean motion
3.64908 °/min
Orbital period
98.66 mins
BSTAR
0.000026708
Loading maneuver chart data...
Computing Atmospheric mass density...
Loading historical data...
Loading historical data...
Loading historical data...
Loading historical data...
Loading historical data...
Loading historical data...
Loading historical data...
Other satellites on launch #106 in the year 2022 (2022-09-02 UTC)

Documentation

Showing up to 5 results
|